DLH320 ESGG-ESMS

Flight info

Callsign DLH320
Flight time 0h 27m
Altitude 23000
Route TOPLA L996 ERNOV
Aircraft A320/M-SDE3FGHIRWY/LB1

Departure

Time 2026-04-26 18:24
Airport Göteborg Landvetter Airport (ESGG)

Arrival

Time 2026-04-26 18:52
Airport Malmö Sturup Airport (ESMS)
Time Latitude Longitude Altitude Speed Heading
2026-04-26 17:42 57.66972 12.29501 516 ft 0 kts 116°
2026-04-26 18:16 57.66980 12.29469 516 ft 4 kts 116°
2026-04-26 18:17 57.66992 12.29426 516 ft 4 kts 130°
2026-04-26 18:17 57.67012 12.29397 516 ft 4 kts 168°
2026-04-26 18:17 57.67031 12.29399 516 ft 1 kts 205°
2026-04-26 18:17 57.67034 12.29402 516 ft 0 kts 205°
2026-04-26 18:19 57.67033 12.29401 516 ft 1 kts 206°
2026-04-26 18:19 57.66995 12.29367 516 ft 8 kts 207°
2026-04-26 18:20 57.66983 12.29297 516 ft 6 kts 290°
2026-04-26 18:20 57.67001 12.29232 516 ft 6 kts 297°
2026-04-26 18:20 57.67042 12.29182 516 ft 9 kts
2026-04-26 18:20 57.67091 12.29227 516 ft 14 kts 25°
2026-04-26 18:21 57.67246 12.29371 516 ft 22 kts 25°
2026-04-26 18:21 57.67387 12.29498 516 ft 23 kts 27°
2026-04-26 18:21 57.67499 12.29598 516 ft 11 kts 20°
2026-04-26 18:21 57.67558 12.29544 516 ft 11 kts 296°
2026-04-26 18:22 57.67586 12.29424 516 ft 4 kts 290°
2026-04-26 18:22 57.67586 12.29423 516 ft 0 kts 290°
2026-04-26 18:22 57.67590 12.29397 516 ft 6 kts 282°
2026-04-26 18:22 57.67589 12.29258 516 ft 14 kts 265°
2026-04-26 18:23 57.67545 12.29128 517 ft 10 kts 206°
2026-04-26 18:23 57.67517 12.29104 516 ft 0 kts 204°
2026-04-26 18:24 57.67506 12.29094 516 ft 10 kts 205°
2026-04-26 18:24 57.67167 12.28775 514 ft 100 kts 205°
2026-04-26 18:24 57.66317 12.28000 521 ft 168 kts 208°
2026-04-26 18:24 57.65246 12.26996 1253 ft 178 kts 210°
2026-04-26 18:25 57.64119 12.25920 2153 ft 184 kts 211°
2026-04-26 18:25 57.62913 12.24809 2627 ft 204 kts 208°
2026-04-26 18:25 57.61556 12.23596 2953 ft 231 kts 207°
2026-04-26 18:25 57.59908 12.22693 3337 ft 263 kts 191°
2026-04-26 18:26 57.58067 12.22225 3765 ft 269 kts 186°
2026-04-26 18:26 57.56177 12.22071 4192 ft 280 kts 181°
2026-04-26 18:26 57.54252 12.22641 5307 ft 280 kts 165°
2026-04-26 18:26 57.52328 12.23496 6198 ft 289 kts 169°
2026-04-26 18:27 57.50326 12.24161 7086 ft 295 kts 172°
2026-04-26 18:27 57.48272 12.24729 7949 ft 301 kts 174°
2026-04-26 18:27 57.46180 12.25260 8810 ft 308 kts 174°
2026-04-26 18:27 57.44038 12.25795 9684 ft 314 kts 174°
2026-04-26 18:28 57.41851 12.26349 10515 ft 320 kts 175°
2026-04-26 18:28 57.39621 12.26924 11300 ft 326 kts 174°
2026-04-26 18:28 57.37356 12.27520 12039 ft 334 kts 174°
2026-04-26 18:28 57.35004 12.28141 12300 ft 358 kts 174°
2026-04-26 18:29 57.32492 12.28812 12784 ft 371 kts 174°
2026-04-26 18:29 57.29857 12.29524 12947 ft 394 kts 174°
2026-04-26 18:29 57.27067 12.30274 13087 ft 415 kts 174°
2026-04-26 18:29 57.24145 12.31059 13249 ft 433 kts 174°
2026-04-26 18:30 57.21127 12.31873 13717 ft 441 kts 174°
2026-04-26 18:30 57.18073 12.32695 14261 ft 446 kts 174°
2026-04-26 18:30 57.14991 12.33516 14778 ft 450 kts 174°
2026-04-26 18:30 57.11878 12.34334 15285 ft 453 kts 174°
2026-04-26 18:31 57.08737 12.35130 15791 ft 456 kts 175°
2026-04-26 18:31 57.05577 12.35916 16272 ft 460 kts 175°
2026-04-26 18:31 57.02397 12.36700 16715 ft 463 kts 175°
2026-04-26 18:31 56.99193 12.37483 17152 ft 466 kts 175°
2026-04-26 18:32 56.95962 12.38267 17601 ft 470 kts 175°
2026-04-26 18:32 56.92715 12.39057 18048 ft 473 kts 175°
2026-04-26 18:32 56.89443 12.39859 18467 ft 475 kts 175°
2026-04-26 18:32 56.86155 12.40666 18830 ft 478 kts 175°
2026-04-26 18:33 56.82846 12.41479 19178 ft 481 kts 175°
2026-04-26 18:33 56.79571 12.42284 19517 ft 483 kts 175°
2026-04-26 18:33 56.76236 12.43109 19843 ft 485 kts 175°
2026-04-26 18:33 56.72943 12.44614 20119 ft 493 kts 161°
2026-04-26 18:34 56.69846 12.47367 20416 ft 497 kts 154°
2026-04-26 18:34 56.66781 12.50309 20702 ft 499 kts 154°
2026-04-26 18:34 56.63708 12.53275 21006 ft 501 kts 154°
2026-04-26 18:34 56.60625 12.56252 21224 ft 503 kts 154°
2026-04-26 18:35 56.57535 12.59234 21277 ft 503 kts 154°
2026-04-26 18:35 56.54446 12.62206 21274 ft 503 kts 154°
2026-04-26 18:35 56.51396 12.65131 20670 ft 503 kts 153°
2026-04-26 18:35 56.48341 12.68062 21800 ft 494 kts 154°
2026-04-26 18:36 56.45282 12.70989 21660 ft 500 kts 154°
2026-04-26 18:36 56.42219 12.73907 21649 ft 495 kts 154°
2026-04-26 18:36 56.39160 12.76813 21911 ft 491 kts 153°
2026-04-26 18:36 56.36168 12.79651 21527 ft 488 kts 154°
2026-04-26 18:37 56.33122 12.82512 21234 ft 498 kts 154°
2026-04-26 18:37 56.30036 12.85405 21280 ft 502 kts 154°
2026-04-26 18:37 56.26943 12.88311 21267 ft 496 kts 154°
2026-04-26 18:37 56.23893 12.91185 21281 ft 492 kts 154°
2026-04-26 18:38 56.20905 12.94001 21284 ft 491 kts 154°
2026-04-26 18:38 56.17886 12.96839 21280 ft 487 kts 154°
2026-04-26 18:38 56.14892 12.99645 21260 ft 485 kts 154°
2026-04-26 18:38 56.11913 13.02425 20895 ft 478 kts 154°
2026-04-26 18:39 56.08977 13.05158 20136 ft 474 kts 154°
2026-04-26 18:39 56.06062 13.07870 19362 ft 470 kts 154°
2026-04-26 18:39 56.03147 13.10579 18399 ft 473 kts 154°
2026-04-26 18:39 56.00234 13.13279 17561 ft 470 kts 154°
2026-04-26 18:40 55.97338 13.15957 16792 ft 467 kts 154°
2026-04-26 18:40 55.94449 13.18524 16022 ft 461 kts 159°
2026-04-26 18:40 55.92442 13.19700 15520 ft 456 kts 169°
2026-04-26 18:40 55.89328 13.20442 14787 ft 449 kts 179°
2026-04-26 18:41 55.86215 13.20822 14036 ft 446 kts 180°
2026-04-26 18:41 55.83131 13.21181 13223 ft 442 kts 179°
2026-04-26 18:41 55.79091 13.21643 12196 ft 436 kts 179°
2026-04-26 18:41 55.76077 13.21992 11439 ft 431 kts 179°
2026-04-26 18:42 55.74062 13.22229 10952 ft 427 kts 179°
2026-04-26 18:42 55.71113 13.22583 10230 ft 422 kts 178°
2026-04-26 18:42 55.68244 13.22934 9584 ft 413 kts 178°
2026-04-26 18:42 55.65414 13.23283 8860 ft 405 kts 178°
2026-04-26 18:43 55.62626 13.23625 8091 ft 399 kts 178°
2026-04-26 18:43 55.59879 13.23960 7465 ft 394 kts 179°
2026-04-26 18:43 55.57153 13.24264 6962 ft 390 kts 179°
2026-04-26 18:43 55.54455 13.24484 6438 ft 386 kts 180°
2026-04-26 18:44 55.51788 13.24647 5907 ft 379 kts 180°
2026-04-26 18:44 55.49196 13.24788 5407 ft 365 kts 181°
2026-04-26 18:44 55.46714 13.24925 5146 ft 352 kts 181°
2026-04-26 18:44 55.44282 13.25064 4879 ft 348 kts 181°
2026-04-26 18:45 55.41874 13.25208 4613 ft 345 kts 180°
2026-04-26 18:45 55.39534 13.25359 4348 ft 327 kts 180°
2026-04-26 18:45 55.37321 13.25508 4206 ft 308 kts 180°
2026-04-26 18:45 55.35283 13.25666 4070 ft 279 kts 177°
2026-04-26 18:46 55.33504 13.26547 3937 ft 258 kts 153°
2026-04-26 18:46 55.32128 13.28508 3811 ft 255 kts 129°
2026-04-26 18:46 55.31319 13.31238 3682 ft 253 kts 104°
2026-04-26 18:46 55.31220 13.34223 3554 ft 240 kts 78°
2026-04-26 18:47 55.31718 13.36877 3426 ft 228 kts 58°
2026-04-26 18:47 55.32665 13.39024 3294 ft 219 kts 35°
2026-04-26 18:47 55.33939 13.40372 3162 ft 209 kts 20°
2026-04-26 18:47 55.35267 13.41248 3026 ft 198 kts
2026-04-26 18:48 55.36602 13.41120 2899 ft 191 kts 348°
2026-04-26 18:48 55.37922 13.40831 2768 ft 191 kts 350°
2026-04-26 18:48 55.39240 13.40565 2678 ft 190 kts 350°
2026-04-26 18:48 55.40531 13.40304 2581 ft 184 kts 350°
2026-04-26 18:49 55.41784 13.40048 2394 ft 178 kts 351°
2026-04-26 18:49 55.43008 13.39798 2157 ft 176 kts 351°
2026-04-26 18:49 55.44221 13.39550 1943 ft 175 kts 351°
2026-04-26 18:49 55.45388 13.39312 1680 ft 159 kts 351°
2026-04-26 18:50 55.46433 13.39099 1467 ft 145 kts 351°
2026-04-26 18:50 55.47409 13.38899 1289 ft 138 kts 351°
2026-04-26 18:50 55.48358 13.38704 1081 ft 136 kts 350°
2026-04-26 18:50 55.49289 13.38513 890 ft 134 kts 351°
2026-04-26 18:51 55.50205 13.38319 698 ft 131 kts 351°
2026-04-26 18:51 55.51107 13.38134 521 ft 129 kts 352°
2026-04-26 18:51 55.51997 13.37955 348 ft 128 kts 353°
2026-04-26 18:51 55.52852 13.37776 240 ft 115 kts 353°
2026-04-26 18:52 55.53482 13.37655 238 ft 66 kts 353°
2026-04-26 18:52 55.53837 13.37580 240 ft 45 kts 353°
2026-04-26 18:52 55.54119 13.37521 241 ft 34 kts 354°
2026-04-26 18:52 55.54224 13.37474 239 ft 11 kts 314°
2026-04-26 18:53 55.54214 13.37322 233 ft 12 kts 262°
2026-04-26 18:53 55.54208 13.37215 233 ft 9 kts 265°
2026-04-26 18:53 55.54198 13.37114 231 ft 8 kts 254°
2026-04-26 18:53 55.54177 13.37024 233 ft 9 kts 254°
2026-04-26 18:54 55.54171 13.36902 231 ft 11 kts 266°
2026-04-26 18:54 55.54162 13.36765 231 ft 11 kts 263°
2026-04-26 18:54 55.54154 13.36648 231 ft 6 kts 264°
2026-04-26 18:54 55.54151 13.36598 231 ft 1 kts 264°
2026-04-26 18:55 55.54141 13.36570 231 ft 4 kts 218°
2026-04-26 18:55 55.54118 13.36564 231 ft 3 kts 176°
2026-04-26 18:55 55.54099 13.36568 231 ft 3 kts 175°
2026-04-26 18:55 55.54084 13.36570 231 ft 2 kts 174°
2026-04-26 18:56 55.54080 13.36571 231 ft 0 kts 173°